Location: Rimouski
(48.4330°N, 68.5170°W)
Time: 09:50:27
(UTC-04:00)

Daily predictions for brighter satellites

Satellite Brightness Start Highest point End
(mag) Time Altitude Azimuth Time Altitude Azimuth Time Altitude Azimuth
CZ-3B DEB 4.2 21:00:39 10° WSW 21:10:37 84° NNW 21:23:56 10° ENE
RESURS DK-1 3.5 21:16:28 10° NNW 21:20:17 33° NE 21:24:04 10° ESE
NOSS 3-4 (A) 4.4 21:13:47 10° NW 21:20:32 52° WSW 21:27:42 10° SSE
NOSS 3-4 (C) 4.4 21:13:52 10° NW 21:20:38 53° WSW 21:27:49 10° SSE
Cosmos 2173 Rocket 4.0 21:19:41 10° N 21:25:50 72° E 21:32:01 10° SSE
NOAA 11 4.3 21:20:57 10° SSE 21:26:22 79° WSW 21:31:51 10° NNW
H-2A R/B 3.7 21:24:18 10° ESE 21:27:32 21° ENE 21:30:44 10° NNE
Abrixas rocket 2.2 21:25:15 10° W 21:28:31 89° NE 21:31:47 10° E
Cosmos 1184 Rocket 3.4 21:26:30 10° SSW 21:29:50 61° WNW 21:33:12 10° N
Meteor 1-21 Rocket 4.4 21:25:18 10° S 21:30:50 56° E 21:36:18 10° NNE
Cosmos 2082 4.3 21:32:47 10° SW 21:38:22 64° WNW 21:44:00 10° NNE
Cosmos 2208 Rocket 4.2 21:35:17 10° NNW 21:40:35 75° WSW 21:45:56 10° SSE
Cosmos 1802 Rocket 4.0 21:35:20 10° N 21:41:31 80° E 21:47:39 10° SSE
Landsat 7 4.3 21:37:45 10° SE 21:42:20 50° ENE 21:46:57 10° N
Cosmos 2297 Rocket 2.9 21:40:28 10° SW 21:46:03 60° WNW 21:51:41 10° NNE
Cosmos 1725 Rocket 4.3 21:40:07 10° N 21:46:17 54° ENE 21:52:10 11° SSE
SL-14 R/B 4.4 21:43:50 11° SSE 21:47:05 28° E 21:50:30 10° NNE
Cosmos 2084 3.6 21:45:09 10° SSW 21:48:54 41° SE 21:52:31 10° NE
Cosmos 1814 Rocket 4.5 21:44:42 10° NNW 21:49:58 53° ENE 21:54:44 12° SE
Cosmos 1242 Rocket 3.1 21:48:14 10° NNW 21:51:55 58° W 21:55:33 10° S
Cosmos 1340 Rocket 4.1 21:48:28 10° SSW 21:52:19 43° WNW 21:56:14 10° N
SPOT 1/Viking Rocket 3.6 21:47:12 10° SSE 21:52:20 87° ENE 21:57:32 10° NNW
IGS 5A 4.2 21:50:16 12° SE 21:53:48 40° ENE 21:57:42 10° N
Terra 2.3 21:53:06 12° SE 21:57:17 49° ENE 22:01:53 10° N
ERBS 3.0 21:55:38 10° NW 21:58:57 50° NNE 22:02:12 10° ESE
Cosmos 2263 Rocket 3.7 21:57:14 12° SE 22:00:13 18° E 22:03:52 10° ENE
Cosmos 1300 2.8 21:57:48 10° N 22:01:38 61° E 22:04:43 15° SSE
Cosmos 841 Rocket 4.2 22:00:30 10° NNW 22:05:34 45° ENE 22:09:53 14° SE
Cosmos 332 Rocket 3.8 22:05:03 10° NNW 22:09:59 84° ENE 22:14:00 16° SSE
Cosmos 1763 Rocket 3.7 22:05:01 10° NNW 22:10:07 59° ENE 22:14:11 16° SE
Cosmos 1867 3.5 22:04:49 10° SSW 22:10:13 69° ESE 22:15:41 10° NE
ATLAS 5 CENTAUR R/B 1.8 22:05:38 10° SW 22:10:21 88° SE 22:15:36 10° NE
Lacrosse 4 Rocket 3.9 22:08:48 10° WSW 22:12:29 27° NW 22:16:17 10° NNE
Cosmos 1408 Rocket 3.6 22:08:37 10° S 22:12:55 82° W 22:17:17 10° N
Cosmos 1626 3.7 22:11:34 15° SE 22:13:20 20° E 22:16:10 10° NE
Cosmos 2016 Rocket 4.3 22:09:59 10° NNW 22:16:16 70° W 22:22:25 10° S
Cosmos 1603 3.8 22:10:36 10° NNW 22:16:18 76° WSW 22:20:55 16° SSE
Cosmos 1726 2.3 22:12:48 10° NNW 22:16:30 68° W 22:19:32 14° S
Meteor 2-10 4.2 22:11:49 10° N 22:17:23 84° ENE 22:22:12 15° SSE
Tiangong 1 1.9 22:15:30 10° SW 22:17:49 23° S 22:18:08 23° SSE
CZ-3A R/B 1.3 22:24:30 10° NNW 22:25:16 15° NNE 22:25:31 15° NE
Cosmos 2227 Rocket 4.5 22:24:57 10° WSW 22:29:45 27° NW 22:34:34 10° NNE
Cosmos 1500 Rocket 3.7 22:28:47 17° S 22:32:04 60° E 22:36:29 10° NNE
SL-16 R/B 4.1 22:28:42 10° NW 22:32:59 22° W 22:37:15 10° SSW
Cosmos 1943 3.2 22:29:01 10° NNW 22:34:42 81° ENE 22:38:50 19° SSE
Cosmos 1455 3.2 22:32:17 10° N 22:35:54 35° ENE 22:37:58 20° SE
H-2A R/B 3.0 22:31:59 10° S 22:37:01 43° W 22:42:11 10° NNW
Cosmos 2058 3.3 22:35:48 21° SSE 22:38:20 49° E 22:42:25 10° NNE
USA 234 3.3 22:32:32 10° NE 22:39:07 90° NNW 22:45:41 10° WSW
CARTOSAT-1 3.8 22:38:35 18° S 22:41:44 63° W 22:46:02 10° NNW
Cosmos 2233 Rocket 4.0 22:36:03 10° N 22:42:20 86° E 22:47:01 18° S
Lacrosse 5 2.3 22:43:18 10° WNW 22:48:10 47° SW 22:51:06 22° SSE
Cosmos 2151 3.0 22:45:29 20° S 22:48:22 73° E 22:52:40 10° NNE
Cosmos 2228 Rocket 3.8 22:43:57 10° NNW 22:48:24 50° W 22:51:56 15° SSW
CZ-2C R/B 4.4 22:46:58 14° ESE 22:51:11 34° ENE 22:56:14 10° N
Cosmos 1703 3.5 22:50:01 25° SSE 22:52:07 56° E 22:56:02 10° NNE
Meteor 1-11 4.3 22:49:00 16° S 22:53:49 82° E 22:59:39 10° NNE
Cosmos 1515 Rocket 4.2 22:51:36 10° NNW 22:55:48 50° W 22:58:48 18° SSW
RESURS DK-1 3.7 22:54:37 10° NW 22:58:17 30° WSW 23:00:38 18° SSW
SME Rocket 3.1 22:56:46 26° SSE 22:58:51 71° ENE 23:03:29 10° NNW
SL-24 R/B 4.4 22:57:51 26° SSE 23:00:10 87° ENE 23:04:22 10° NNW
Cosmos 371 Rocket 4.1 22:56:46 10° NW 23:01:19 42° WSW 23:04:22 19° SSW
H-2A R/B 2.7 23:00:30 20° SSW 23:03:17 48° W 23:07:25 10° NNW
Cosmos 1743 Rocket 4.3 23:00:07 12° SSW 23:04:03 49° WNW 23:08:16 10° N
Abrixas rocket 2.6 23:02:03 10° W 23:05:09 42° SSW 23:05:44 38° S
Cosmos 1151 Rocket 3.8 23:05:01 10° NNW 23:09:15 47° W 23:12:00 20° SSW
CZ-4B R/B 3.5 23:05:08 10° NNE 23:10:28 78° ESE 23:14:03 21° S
CZ-2C R/B 3.7 23:07:19 10° NNE 23:12:02 30° E 23:14:18 22° SE
Cosmos 540 Rocket 3.4 23:13:17 10° NNW 23:18:29 85° ENE 23:21:21 27° SSE
Cosmos 2285 Rocket 4.0 23:12:21 10° NNW 23:18:43 84° WSW 23:22:43 25° SSE
Cosmos 1356 4.1 23:17:20 22° SW 23:19:23 52° WNW 23:22:50 10° N
CZ-4 R/B 4.1 23:17:53 10° N 23:22:47 68° WNW 23:26:25 17° SSW
Cosmos 1354 Rocket 4.0 23:21:20 24° S 23:24:27 67° ESE 23:29:40 10° NNE
Cosmos 2034 Rocket 4.2 23:22:10 10° N 23:28:32 68° E 23:32:20 25° SSE
Cosmos 2084 Rocket 4.4 23:28:40 10° NNW 23:32:16 38° NE 23:34:59 16° ESE
COSMOS 2406 3.9 23:27:25 10° NNW 23:32:56 49° NE 23:36:59 18° SE
Terra 3.6 23:31:59 12° SW 23:35:17 23° W 23:39:02 10° NW
ERBS 3.7 23:32:37 10° WNW 23:35:26 24° SW 23:35:29 24° SW
Cosmos 1891 Rocket 4.4 23:31:01 10° N 23:37:10 85° E 23:40:39 27° S
Cosmos 1933 4.5 23:34:52 10° N 23:38:39 34° ENE 23:40:21 24° ESE
CZ-4C R/B 3.2 23:37:45 23° SE 23:39:04 26° ESE 23:43:48 10° ENE
Meteor 2-10 Rocket 4.3 23:37:46 10° N 23:42:51 45° ENE 23:45:56 23° SE
Cosmos 2263 Rocket 2.2 23:38:53 16° SSW 23:43:26 78° WNW 23:49:05 10° NNE
BREEZE-M DEB (TANK) 3.4 23:42:37 10° W 23:45:58 88° NNE 23:59:50 10° ESE
ALOS 2 2.6 23:45:40 33° SSE 23:47:34 72° ENE 23:51:58 10° N
Cosmos 1626 3.6 23:46:12 17° SW 23:48:31 31° WNW 23:51:54 10° N
Cosmos 292 Rocket 4.4 23:45:00 10° NNW 23:49:39 50° ENE 23:52:17 24° SE
Sich 1 2.9 23:53:19 35° S 23:55:04 90° W 23:59:22 10° N
Cosmos 1869 3.6 23:51:15 10° NNW 23:55:09 57° W 23:56:30 36° SSW
